Notices

What's New in latest Release from April 7th, 2021:

- Updated Glossary, including Speed of Maximum Gust, and Total Hourly Precipitation

- Updated national and regional climate services offices contacts and prices information

- Addition of station inventory lists for 1981-2010, 1971-2000, and 1961-1990 Normals.

If you haven't already, please take our survey and provide feedback about our website: https://eccc.sondage-survey.ca/f/LanguageSelection.aspx?s=442ca660-fcf1-47c0-95a9-59707d6fd709

Hourly Data Report for March 19, 2004

SHERBROOKE A
QUEBEC

45°26'00.000" N
71°41'00.000" W
241.40 m
7028124
71610
YSC

Download Data

Hourly Data (March 2004)
Hourly Data Report for March 19, 2004
TIME
LST
Temp Definition
°C
Dew Point Definition
°C
Rel Hum Definition
%
Precip. Amount Definition
mm

Wind Dir Definition
10's deg

Wind Spd Definition
km/h
Visibility Definition
km
Stn Press Definition
kPa
Hmdx Definition


Wind Chill Definition


Weather Definition


00:00 -6.2 -9.2 79   8 7 15.0 99.35   -10 Snow
01:00 -6.2 -12.5 61   5 6 15.0 99.38   -9  
02:00 -6.6 -11.5 68   7 7 15.0 99.37   -10 Snow
03:00 -6.6 -11.1 70   6 7 15.0 99.36   -10  
04:00 -6.9 -10.6 75   4 9 4.8 99.39   -11 Snow
05:00 -7.2 -9.6 83   5 7 4.8 99.43   -11 Snow
06:00 -7.7 -9.8 85   7 9 11.3 99.49   -12 Snow
07:00 -7.6 -9.4 87   6 7 1.6 99.58   -11 Snow
08:00 -6.6 -8.1 89   7 7 4.8 99.61   -10 Snow Showers
09:00 -4.7 -6.7 86   8 6 4.8 99.67   -7 Snow Showers
10:00 -2.6 -5.5 80     0 4.8 99.71     Snow Showers
11:00 -2.0 -5.0 80   30 6 6.4 99.74   -4 Snow Showers
12:00 -1.4 -5.5 74   27 13 19.3 99.79   -6 Mostly Cloudy
13:00 -1.1 -6.3 68   32 9 19.3 99.80   -4 Snow Showers
14:00 -1.0 -6.6 66   30 15 24.1 99.82   -6 Mostly Cloudy
15:00 -0.8 -6.6 65   29 17 24.1 99.83   -6 Mainly Clear
16:00 -0.4 -7.5 59   32 11 24.1 99.85   -4 Mainly Clear
17:00 -0.8 -7.9 59   30 11 24.1 99.90   -5 Mainly Clear
18:00 -2.7 -7.8 68   30 7 15.0 99.94   -6  
19:00 -4.3 -8.6 72   27 6 15.0 99.98   -7  
20:00 -5.4 -8.8 77   27 4 15.0 100.02   -7  
21:00 -6.7 -8.9 84   27 4 15.0 100.06   -9  
22:00 -8.7 -10.5 87     0 15.0 100.06      
23:00 -9.2 -9.9 95   11 6 15.0 100.05   -13  

Notes on Data Quality.

Legend

  • E = Estimated
  • M = Missing
  • NA = Not Available*
  • [empty] = Indicates an unobserved value
Date modified: